Wind_Speed
7 6 6 6 9 12 15 16 17 17 19 23 23 21 23 24 27 29 29 28 27 29 30 30 32 35 35 35 35 35 33 32 31 31 30 29 27 28 30 30 29 28 28 29
4 5 6 9 14 15 14 14 14 16 19 22 21 22 23 24 27 26 27 26 28 28 29 29 32 33 34 34 35 35 34 33 32 31 30 27 28 28 26 26 27 27 27 28
4 4 10 14 15 14 13 14 15 17 17 20 22 23 22 23 24 23 25 25 25 28 29 30 32 32 32 34 34 35 34 34 33 32 31 28 25 23 23 23 24 24 26 26
6 9 13 15 13 13 14 15 17 18 19 19 22 25 24 25 24 22 23 24 24 26 28 30 31 31 31 33 34 34 34 34 32 31 29 28 25 24 23 23 22 24 25 24
7 10 13 14 13 15 16 15 18 19 20 20 20 25 23 25 24 21 20 20 20 23 26 27 29 31 33 33 34 34 34 34 31 30 29 28 27 24 23 21 21 22 23 24
6 9 12 14 14 16 15 15 15 15 18 20 19 23 25 26 22 19 18 17 19 22 24 26 28 29 31 32 33 33 35 35 31 30 30 29 28 25 23 22 21 22 23 23
6 9 12 15 16 15 15 15 15 17 18 19 19 21 21 21 19 20 17 16 18 20 22 24 27 29 30 31 31 32 34 34 32 30 30 29 28 26 24 22 22 22 22 22
9 12 12 13 15 15 14 14 16 18 19 20 17 19 18 17 16 18 18 18 19 19 21 23 24 26 28 29 29 31 32 32 31 30 28 28 28 26 24 23 21 21 22 23
11 12 11 12 14 14 11 11 14 17 17 20 19 17 18 16 16 16 17 18 19 19 20 21 22 24 25 26 26 28 29 29 29 29 28 28 27 25 23 23 22 22 23 24
12 12 10 11 12 11 11 11 12 14 17 19 20 19 16 16 15 15 16 17 18 19 20 20 21 22 23 24 23 25 26 27 27 27 27 27 26 24 24 24 24 23 24 24
13 13 10 10 9 10 11 11 12 13 16 19 22 22 20 17 13 13 14 16 16 17 19 20 21 21 21 21 22 23 24 25 25 26 26 26 25 24 24 25 25 24 24 24
14 12 10 9 9 9 10 11 12 14 16 18 21 22 20 18 13 14 15 16 15 16 18 18 19 20 21 21 22 23 24 25 25 25 25 25 25 25 25 25 25 24 24 24
14 12 10 10 10 9 9 10 13 14 16 17 20 20 20 20 17 15 16 16 16 16 18 18 18 19 21 23 23 24 25 25 25 25 26 26 26 25 25 25 25 25 25 24
13 12 11 10 10 8 8 10 13 15 17 19 19 20 20 20 18 17 17 16 16 16 17 18 18 19 20 21 23 23 24 25 26 26 26 26 27 27 27 26 26 26 26 25
12 11 11 9 8 8 10 11 13 15 17 18 19 19 20 20 19 18 17 17 17 17 17 17 18 19 20 21 22 22 22 23 25 26 26 26 26 27 27 27 26 27 27 27
11 10 9 8 8 9 10 11 14 16 17 18 19 20 20 21 20 19 18 18 18 18 18 18 19 20 21 21 22 22 22 23 24 24 25 26 26 26 25 25 26 26 26 27
10 10 9 8 8 8 10 12 14 17 19 19 19 20 20 20 20 19 19 20 19 19 19 20 20 20 21 22 22 22 23 23 23 23 24 24 25 26 25 25 24 25 25 25
11 11 10 9 8 9 10 11 14 17 19 20 19 20 20 20 20 20 20 20 20 20 20 20 21 21 21 21 21 21 21 21 22 23 24 23 24 24 24 24 25 24 24 24
12 11 10 9 8 9 10 11 15 18 19 19 19 20 20 20 21 21 20 19 19 19 19 19 20 19 18 18 18 19 20 20 20 21 21 22 22 22 22 23 24 23 23 23
11 10 10 10 9 11 11 12 15 18 19 19 20 20 20 20 21 19 19 19 19 19 18 18 17 17 17 16 16 16 17 17 18 18 19 19 20 20 20 20 20 21 21 21
10 10 9 10 12 12 12 15 17 19 20 21 20 20 20 20 19 19 19 18 18 18 18 17 16 15 16 15 15 14 14 15 15 16 16 16 17 17 17 18 19 19 19 19
10 10 10 12 13 13 14 16 17 19 19 20 20 20 19 19 19 18 18 17 17 17 17 15 15 14 14 14 14 14 14 14 14 14 14 15 15 15 16 17 17 17 17 18
11 11 11 12 12 12 13 15 16 18 19 20 19 18 18 18 17 17 16 16 15 14 13 13 12 12 12 12 12 12 13 13 13 13 13 14 14 14 14 15 15 15 15 15
12 12 11 12 11 11 13 14 16 17 19 19 18 17 17 17 16 15 15 14 12 11 11 10 10 10 9 9 10 10 10 11 12 12 12 12 12 12 12 12 13 13 13 13
11 10 9 10 10 10 11 13 15 16 18 18 17 16 16 16 15 14 13 12 10 9 9 9 8 7 7 8 8 8 9 10 10 10 10 11 11 11 11 11 11 11 11 11
10 9 7 7 8 9 11 13 14 16 17 17 16 16 15 14 13 13 11 10 8 8 8 7 8 7 7 7 8 7 7 8 8 9 9 9 9 9 9 9 9 9 9 9
Wind_Direction
254 265 268 281 275 263 256 253 255 262 265 270 275 273 265 263 266 268 266 262 256 251 247 245 244 242 241 240 242 243 246 247 250 253 253 251 248 245 246 246 241 242 242 244
261 287 279 262 266 271 272 275 276 274 271 274 278 276 270 269 267 267 262 256 253 250 249 245 242 240 240 240 241 243 245 246 249 251 252 253 250 249 251 247 242 243 248 248
244 259 274 274 281 284 285 283 277 274 277 281 286 282 275 267 270 268 263 262 257 252 251 246 245 243 240 239 241 243 245 247 248 250 252 255 253 250 253 252 246 247 249 254
245 253 267 282 291 291 286 283 280 278 277 276 278 280 282 275 271 264 264 261 258 255 251 248 245 244 242 242 244 243 245 247 249 250 249 251 252 251 253 255 252 254 253 257
231 258 273 285 290 285 284 279 279 278 278 277 275 279 282 279 271 258 262 258 257 257 254 252 247 246 244 242 243 242 246 247 247 247 248 250 248 251 252 258 259 260 259 262
229 255 271 278 286 291 294 287 282 278 277 277 277 277 279 285 282 277 266 261 260 256 252 250 249 247 245 243 244 244 248 250 250 248 247 249 251 252 257 260 262 263 266 266
285 281 282 285 289 299 297 294 289 282 280 283 272 269 273 275 284 289 279 273 267 257 254 250 248 248 248 249 248 248 249 251 252 251 251 252 254 255 261 261 264 265 267 269
282 290 284 283 290 294 290 288 288 292 297 302 291 281 278 276 284 285 285 280 270 262 258 253 249 249 249 251 251 251 250 252 253 255 255 256 257 260 260 264 269 268 271 272
251 259 271 280 289 293 290 282 288 295 299 298 296 295 280 276 284 288 288 283 273 267 261 256 253 250 248 250 251 251 249 250 253 254 255 257 259 260 263 264 268 270 272 274
259 263 263 275 288 298 297 291 289 291 295 300 301 298 289 289 297 294 290 287 278 267 261 258 256 255 252 253 252 249 249 249 252 255 258 260 263 264 265 265 268 271 273 273
263 267 260 263 280 288 288 290 287 287 290 296 299 303 305 307 299 301 298 290 280 269 261 258 257 256 254 252 251 250 251 251 252 254 256 259 262 263 264 266 268 270 271 270
265 270 262 256 262 270 280 286 288 289 289 291 293 300 305 310 303 300 300 293 282 272 265 263 258 256 255 254 254 252 254 255 255 257 257 259 261 263 263 264 267 267 267 267
270 273 265 258 253 259 278 291 295 292 297 296 295 300 309 311 307 301 297 293 287 278 270 266 265 262 259 257 256 254 255 257 258 259 259 259 261 261 261 262 264 266 266 266
267 271 267 273 283 282 292 291 295 297 298 302 302 304 305 305 306 303 299 294 288 283 276 268 266 265 262 259 257 255 254 256 257 257 258 259 261 260 260 262 263 263 264 265
263 268 267 270 282 290 295 292 292 297 301 304 308 309 307 307 307 305 301 297 292 286 282 273 269 267 264 262 262 260 257 257 256 256 257 257 258 257 259 261 262 262 263 265
258 265 268 269 282 292 294 297 302 305 303 304 306 309 307 306 306 303 300 299 295 289 283 277 272 270 267 264 262 263 262 261 260 258 258 259 260 259 259 261 262 261 260 262
257 264 267 269 268 279 290 292 298 303 305 306 309 309 306 307 306 304 300 298 295 291 285 279 276 273 270 266 266 265 264 262 261 261 261 259 260 260 261 262 262 261 262 264
260 265 270 274 275 286 286 294 300 305 307 308 310 310 309 308 306 303 300 297 295 292 287 283 279 279 275 269 267 265 265 264 260 259 260 260 260 261 261 262 263 263 263 266
259 269 274 276 280 297 289 297 305 308 312 311 311 311 311 308 306 304 301 298 294 293 288 284 283 280 275 270 265 264 264 263 262 260 259 259 260 261 261 262 262 260 262 265
258 264 272 284 288 297 297 306 310 312 313 314 313 312 311 309 307 306 302 299 296 293 291 287 284 279 274 270 266 264 263 262 263 262 260 258 257 257 259 259 257 257 260 264
257 261 270 281 289 292 300 309 311 313 314 316 315 313 312 311 309 308 304 300 298 294 293 288 282 277 273 270 267 266 263 264 265 265 262 261 260 258 259 260 259 261 265 267
250 256 265 275 284 292 299 307 312 314 316 318 316 315 314 313 312 310 307 302 300 297 293 289 282 275 272 267 266 267 268 266 265 264 262 261 260 261 264 263 261 264 266 267
242 250 263 279 289 298 306 311 316 319 321 323 321 319 319 318 316 313 310 307 304 302 296 293 288 282 276 271 269 268 266 267 266 263 261 260 260 260 261 260 262 266 268 269
232 248 267 280 287 299 309 315 320 323 326 329 329 327 325 323 320 317 314 311 307 305 303 301 293 289 283 278 275 271 267 266 264 260 260 260 260 259 260 263 264 265 267 269
227 237 255 273 287 301 311 319 325 330 333 334 336 336 333 329 326 323 322 315 310 310 312 309 303 295 291 288 283 280 276 271 269 267 264 262 262 262 261 261 261 264 267 271
232 246 262 274 290 306 318 326 332 335 338 340 341 341 341 340 338 336 333 331 329 325 319 313 307 304 298 294 292 287 280 275 270 266 264 262 261 261 262 263 265 267 268 270
Height
5793 5794 5795 5797 5798 5799 5799 5799 5800 5800 5799 5795 5794 5793 5791 5787 5786 5786 5786 5786 5786 5785 5786 5788 5790 5792 5794 5796 5799 5801 5803 5806 5808 5809 5810 5811 5813 5816 5818 5819 5819 5824 5828 5829
5790 5792 5793 5795 5795 5794 5793 5794 5794 5794 5792 5790 5788 5787 5785 5783 5780 5778 5778 5779 5780 5779 5780 5783 5783 5784 5787 5790 5792 5795 5798 5801 5803 5804 5805 5805 5808 5811 5812 5813 5815 5818 5821 5823
5789 5792 5792 5791 5790 5790 5789 5790 5790 5789 5787 5785 5783 5781 5779 5777 5774 5773 5773 5773 5774 5775 5776 5777 5777 5778 5782 5784 5786 5788 5792 5794 5796 5798 5799 5800 5803 5805 5807 5808 5810 5812 5815 5817
5787 5789 5789 5787 5786 5786 5786 5786 5785 5783 5782 5781 5780 5776 5774 5770 5768 5768 5768 5768 5768 5770 5770 5771 5772 5773 5775 5777 5780 5783 5786 5789 5791 5792 5794 5796 5798 5799 5802 5804 5806 5808 5810 5812
5784 5786 5785 5784 5784 5783 5782 5781 5780 5778 5776 5775 5775 5772 5770 5766 5762 5762 5762 5763 5763 5764 5765 5766 5766 5768 5769 5772 5775 5777 5780 5783 5785 5787 5789 5791 5793 5795 5797 5799 5802 5804 5806 5808
5781 5782 5782 5781 5781 5779 5777 5776 5775 5773 5772 5771 5770 5768 5765 5761 5758 5757 5757 5758 5759 5759 5759 5760 5761 5763 5764 5767 5770 5772 5774 5777 5779 5782 5784 5785 5787 5789 5791 5794 5797 5799 5801 5803
5778 5778 5777 5777 5776 5776 5775 5773 5771 5769 5768 5766 5764 5762 5759 5756 5756 5755 5754 5754 5755 5755 5755 5756 5757 5758 5760 5762 5764 5766 5769 5772 5774 5776 5778 5780 5782 5784 5786 5789 5792 5794 5795 5797
5776 5776 5774 5773 5773 5773 5771 5770 5769 5766 5764 5761 5759 5757 5755 5751 5751 5751 5750 5750 5751 5751 5751 5751 5752 5754 5755 5757 5759 5761 5764 5766 5769 5771 5773 5774 5778 5780 5781 5785 5787 5788 5790 5791
5773 5773 5772 5771 5771 5770 5768 5768 5767 5763 5762 5759 5756 5754 5750 5748 5748 5748 5747 5747 5747 5747 5747 5747 5748 5749 5750 5752 5754 5756 5759 5761 5764 5766 5768 5770 5773 5774 5777 5779 5781 5783 5784 5785
5769 5770 5770 5769 5768 5767 5766 5765 5764 5762 5759 5756 5754 5750 5747 5745 5745 5745 5744 5743 5743 5743 5743 5744 5744 5745 5746 5747 5749 5751 5754 5756 5759 5761 5763 5765 5767 5769 5772 5774 5776 5778 5778 5779
5767 5767 5767 5766 5766 5765 5765 5763 5761 5760 5757 5754 5751 5751 5746 5743 5742 5741 5741 5740 5739 5739 5740 5741 5741 5741 5742 5743 5745 5747 5749 5751 5753 5755 5758 5760 5762 5764 5766 5768 5770 5772 5773 5773
5763 5763 5763 5763 5763 5761 5761 5761 5759 5758 5756 5753 5749 5750 5744 5741 5739 5739 5738 5737 5736 5736 5737 5737 5737 5738 5739 5740 5741 5743 5745 5747 5748 5750 5752 5754 5756 5759 5761 5762 5764 5765 5766 5767
5760 5761 5760 5760 5760 5759 5758 5758 5757 5755 5753 5750 5747 5747 5742 5739 5737 5736 5736 5735 5734 5734 5733 5733 5733 5734 5735 5736 5737 5738 5740 5741 5743 5745 5747 5749 5751 5753 5754 5756 5758 5759 5760 5761
5757 5757 5758 5758 5755 5755 5755 5755 5755 5753 5751 5748 5745 5743 5740 5737 5735 5734 5733 5731 5731 5731 5730 5729 5729 5730 5730 5731 5732 5733 5734 5736 5738 5739 5741 5742 5744 5746 5748 5750 5751 5753 5754 5755
5755 5755 5754 5754 5754 5754 5754 5753 5752 5750 5748 5745 5743 5740 5737 5735 5733 5731 5729 5728 5727 5727 5726 5725 5725 5725 5726 5726 5727 5728 5729 5730 5732 5734 5735 5736 5738 5740 5741 5743 5744 5746 5747 5749
5752 5752 5752 5752 5752 5752 5751 5750 5749 5747 5745 5742 5740 5738 5735 5732 5730 5728 5727 5725 5724 5723 5722 5722 5721 5721 5721 5722 5722 5723 5724 5725 5726 5727 5729 5730 5731 5733 5735 5736 5738 5739 5741 5742
5749 5750 5750 5750 5749 5749 5749 5748 5747 5745 5741 5739 5736 5735 5731 5729 5727 5725 5723 5722 5720 5719 5718 5717 5716 5716 5716 5716 5717 5717 5718 5719 5720 5721 5722 5724 5725 5727 5728 5730 5731 5733 5734 5735
5747 5748 5748 5747 5748 5746 5747 5745 5744 5741 5738 5735 5733 5730 5728 5725 5723 5721 5719 5717 5716 5714 5713 5712 5711 5711 5710 5710 5711 5711 5712 5713 5714 5716 5717 5718 5719 5721 5722 5723 5725 5726 5728 5729
5745 5745 5745 5745 5744 5743 5742 5741 5740 5738 5735 5732 5730 5727 5724 5722 5719 5717 5714 5713 5711 5709 5708 5707 5706 5705 5705 5705 5706 5706 5707 5708 5709 5710 5711 5712 5713 5715 5716 5717 5719 5720 5722 5723
5743 5743 5744 5743 5741 5740 5739 5738 5737 5735 5732 5729 5726 5723 5721 5718 5715 5714 5710 5708 5706 5705 5703 5702 5701 5701 5700 5701 5701 5702 5702 5703 5704 5705 5706 5707 5708 5709 5711 5712 5713 5715 5716 5717
5740 5741 5741 5741 5739 5737 5737 5736 5735 5733 5731 5726 5723 5720 5717 5714 5712 5709 5706 5704 5702 5700 5699 5697 5697 5696 5696 5696 5697 5697 5698 5699 5699 5700 5701 5702 5703 5705 5706 5707 5709 5710 5711 5712
5738 5738 5739 5738 5737 5737 5735 5734 5732 5730 5726 5722 5719 5716 5713 5710 5707 5705 5702 5700 5698 5696 5695 5693 5693 5692 5692 5692 5693 5693 5694 5695 5696 5697 5697 5698 5699 5700 5701 5703 5704 5705 5706 5707
5735 5736 5736 5736 5736 5734 5733 5731 5729 5726 5723 5719 5716 5713 5710 5707 5704 5701 5699 5696 5694 5693 5691 5690 5690 5689 5689 5689 5689 5690 5690 5691 5692 5692 5693 5694 5695 5696 5697 5698 5699 5700 5701 5702
5733 5734 5735 5734 5733 5733 5731 5729 5727 5724 5720 5717 5713 5710 5707 5704 5701 5698 5696 5694 5692 5690 5689 5688 5687 5686 5686 5686 5686 5686 5687 5687 5688 5689 5690 5691 5691 5692 5693 5695 5696 5697 5697 5698
5729 5732 5733 5733 5733 5731 5730 5728 5725 5722 5719 5715 5711 5708 5705 5702 5699 5696 5694 5692 5690 5688 5687 5686 5685 5684 5684 5684 5684 5684 5684 5684 5685 5686 5686 5687 5688 5689 5690 5691 5692 5693 5694 5694
5728 5730 5731 5732 5732 5731 5729 5727 5724 5721 5717 5714 5710 5707 5704 5701 5698 5695 5693 5690 5689 5687 5686 5685 5684 5683 5682 5682 5682 5682 5682 5682 5682 5683 5684 5684 5686 5687 5688 5689 5689 5690 5691 5691